STARLINK-34340

Last updated on Fri Jun 27 2025 00:02:05 GMT+0000 (Coordinated Universal Time)

1 64163U 25112T 25177.57521861 .00034901 00000+0 89219-3 0 9996 2 64163 97.6018 227.5749 0000108 156.1580 203.9670 15.39371757 4676
UTC large
Height (km)
Speed (km/s)
/
Latitude / Longitude
Inclination (degrees)
Orbital Period (minutes)
Azimuth
Elevation
Range (km)
Doppler Factor

Next 0 passes for location: London (51.5072 / 0.1276)

Sorry there are no passes over London.